0 HST 1 20580U 90037B 25352.01685452 .00005621 00000-0 19130-3 0 9993 2 20580 28.4674 236.5696 0001951 306.2372 53.8043 15.28122531760808 0 ISS (ZARYA) 1 25544U 98067A 25353.05456139 .00006809 00000-0 12867-3 0 9991 2 25544 51.6316 111.2076 0003177 269.7772 90.2853 15.49660414543830 0 CXO 1 25867U 99040B 25354.55178789 .00000629 00000-0 00000-0 0 9996 2 25867 53.1580 122.2771 8124205 310.8135 0.2560 0.37797284 16644